FENGYUN 1C DEB

Satellite information

Favourite Embed

Satellite Type and Status

DEBRISIN ORBIT

Key statistics

Satellite FENGYUN 1C DEB at a glance.

Uptime

9616

Days in orbit

Revolutions

≈ 14.1

Per day

Orbit

SSO

Sun Synchronous Orbit

Inclination

99.3

Latest

Satellite identification and parameters

Extended collection of information and parameters for FENGYUN 1C DEB.

Object identification

Identified? True

Debris? True

Object name: FENGYUN 1C DEB

International designator: 1999-025ASL

Object number (NORAD): 30726

Object ID (CCSDS): 30726

Country: PEOPLES REPUBLIC OF CHINA (PRC)

Current information (Y/N): Y

RCS size: SMALL

Orbital parameters

Period: 102.218 minutes

Inclination: 99.2654 deg

SMA: 7241.769 km

Apoapsis: 921.244 km

Periapsis: 806.024 km

RAAN: 247.9457 deg

Eccentricy: 0.00795524

Argument of periapsis: 137.4666 deg

Mean anomaly: 286.8918 deg

Mean motion: 14.08756004 rev/day

Mean motion (dot): 0.00002247 rev/day2

B* drag term: 0.0012916627 1/REarth

Two-line elements (TLE)

Creation date: Sept. 6, 2025, 2:09 a.m.

Reference frame: TEME

Reference center: EARTH

Epoch: Sept. 5, 2025, 10:46 p.m. UTC

TLE line 0: 0 FENGYUN 1C DEB

TLE line 1: 1 30726U 99025ASL 25248.94910436 .00002247 00000-0 12917-2 0 9997

TLE line 2: 2 30726 99.2654 247.9457 0079552 137.4666 286.8918 14.08756004946066

Live tracking on map

Real-time ground track for satellite FENGYUN 1C DEB.

In-orbit conjunctions

A list of the most updated potential collisions computed for object FENGYUN 1C DEB.

Target Orbit TCA Probability of collision Miss distance Type
SL-3 DEB LEO 2025-08-28 18:50:37 0.0001228133 94.0 (m) DEBRIS
FENGYUN 1C DEB SSO 2024-11-12 07:27:29 0.0001349017 431.0 (m) DEBRIS
SL-14 DEB LEO 2024-09-29 19:41:54 0.0001048091 42.0 (m) DEBRIS

Associated space launch

Chinese polar orbiting meteorological satellite

FENGYUN 1C DEB was lifted into orbit during the mission ‘Long March 4B | Feng Yun 1C’, on board a Long March 4B space rocket.

The launch took place on May 10, 1999, 1:33 a.m. from Launch Complex 7.

For more information about the launch, click the button.

Launch to space Long March 4B | Feng Yun 1C
Long March 4B | Feng Yun 1C

Agency: N/A

Status: Launch Successful

Launch date: May 10, 1999, 1:33 a.m. UTC

Rocket: Long March 4B

Launch pad: Launch Complex 7

Location: Taiyuan Satellite Launch Center, People's Republic of China

...

Latest news about this satellite

There are no fresh news available about this satellite. Check back as we update our databases every day.


Newsletter sign-up

Weekly statistics, charts and insights to help you stay on top of the space industry.